Location: Anjeux
(47.8815°N, 6.2076°E)
Time: 03:07:55
(UTC+00:00)

First-Move - Pass Details

Date: 05 December 2021
Orbit: 574 x 664 km, 97.6° (Epoch: 22 January)

Event Time Altitude Azimuth Distance (km) Brightness Sun altitude
Rises 16:39:19 0° 221° (SW) 2,854 ? -9.1°
Reaches altitude 10° 16:43:08 10° 257° (WSW) 1,983 ? -9.7°
Maximum altitude 16:44:25 11° 274° (W) 1,918 ? -9.9°
Drops below altitude 10° 16:45:42 10° 292° (WNW) 2,005 ? -10.1°
Sets 16:49:39 0° 327° (NNW) 2,947 ? -10.7°
